This is the latest recevied weather packets stored in our database for station/object OE3PDB-4. If no packets are shown the sender has not sent any weather packets the latest 1 day(s).
| Time | Temp. | Humidity | Pressure | Rain* | Wind** | Luminosity | Snow |
|---|---|---|---|---|---|---|---|
| 1777971001 | 21.11° C | 46% | 1009.7 hPa | 0 mm | 1.34 m/s, 157° | - | - |
| 1777970401 | 21.11° C | 46% | 1009.8 hPa | 0 mm | 0 m/s | - | - |
| 1777969801 | 20.56° C | 48% | 1009.5 hPa | 0 mm | 0 m/s | - | - |
| 1777969201 | 20° C | 48% | 1009.6 hPa | 0 mm | 0 m/s | - | - |
| 1777968601 | 20° C | 49% | 1009.8 hPa | 0 mm | 0 m/s | - | - |
| 1777968001 | 19.44° C | 50% | 1009.8 hPa | 0 mm | 0 m/s | - | - |
| 1777967401 | 19.44° C | 51% | 1009.8 hPa | 0 mm | 0 m/s | - | - |
| 1777966801 | 18.89° C | 53% | 1009.9 hPa | 0 mm | 0.89 m/s, 180° | - | - |
| 1777966201 | 18.33° C | 53% | 1009.9 hPa | 0 mm | 0 m/s | - | - |
| 1777965601 | 17.78° C | 56% | 1010 hPa | 0 mm | 0 m/s | - | - |
| 1777965001 | 17.22° C | 58% | 1010 hPa | 0 mm | 0 m/s | - | - |
| 1777964401 | 16.67° C | 60% | 1010.3 hPa | 0 mm | 0 m/s | - | - |
| 1777963801 | 16.11° C | 61% | 1010.2 hPa | 0 mm | 0 m/s | - | - |
| 1777963201 | 15.56° C | 61% | 1010.2 hPa | 0 mm | 0 m/s | - | - |
| 1777962601 | 15.56° C | 61% | 1010.1 hPa | 0 mm | 0 m/s | - | - |
| 1777962001 | 15.56° C | 62% | 1010.1 hPa | 0 mm | 0 m/s | - | - |
| 1777961401 | 15° C | 63% | 1010 hPa | 0 mm | 0 m/s | - | - |
| 1777960801 | 15° C | 63% | 1010 hPa | 0 mm | 0 m/s | - | - |
| 1777960201 | 15° C | 63% | 1009.9 hPa | 0 mm | 0 m/s | - | - |
| 1777959601 | 14.44° C | 63% | 1009.9 hPa | 0 mm | 0 m/s | - | - |
| 1777959001 | 14.44° C | 64% | 1009.9 hPa | 0 mm | 0 m/s | - | - |
| 1777958401 | 13.33° C | 65% | 1010 hPa | 0 mm | 0 m/s | - | - |
| 1777957801 | 13.33° C | 65% | 1010 hPa | 0 mm | 0 m/s | - | - |
| 1777957201 | 12.78° C | 65% | 1010.1 hPa | 0 mm | 0 m/s | - | - |
| 1777956601 | 12.22° C | 65% | 1010 hPa | 0 mm | 0 m/s | - | - |
* Rain latest hour (hover to see other rain measurements)
** Current wind speed in m/s (hover to see current wind gust speed)